Evanston, WY

10:02 AM MDT on October 01, 2016 (GMT -0600)
Evanston-Uinta County Burns

Weather History for KEVW - April, 2013

Change the Weather History Date:

Friday, April 5, 2013

  Actual Average Record
Temperature  
Mean Temperature 43 °F 36 °F  
Max Temperature 49 °F 46 °F 64 °F (2002)
Min Temperature 36 °F 27 °F 17 °F (1999)
Degree Days  
Heating Degree Days 22 29  
Month to date heating degree days 109 146  
Since 1 July heating degree days 6700 7214  
Cooling Degree Days 0 0  
Month to date cooling degree days 0 0  
Year to date cooling degree days 0 0  
Moisture  
Dew Point 31 °F    
Average Humidity 67    
Maximum Humidity 92    
Minimum Humidity 42    
Precipitation  
Precipitation 0.10 in 0.03 in 0.21 in (2001)
Month to date precipitation 0.45 0.16  
Year to date precipitation 1.33 2.17  
Sea Level Pressure  
Sea Level Pressure 29.93 in    
Wind  
Wind Speed 14 mph (WSW)    
Max Wind Speed 24 mph    
Max Gust Speed 31 mph    
Visibility 9 miles    
Events Rain    
T = Trace of Precipitation, MM = Missing Value Source: NWS Daily Summary

Daily Weather History Graph

Daily Weather History Graph

Search for Another Location

Airport or City:

Trip Planner

Search our weather history database for the weather conditions in past years. The results will help you decide how hot, cold, wet, or windy it might be!

Date:

Astronomy

Apr. 05, 2013 Rise Set
Actual Time 7:00 AM MDT 7:53 PM MDT
Civil Twilight 6:32 AM MDT 8:22 PM MDT
Nautical Twilight 5:58 AM MDT 8:55 PM MDT
Astronomical Twilight 5:24 AM MDT 9:30 PM MDT
Moon 4:12 AM MDT (4/5) 3:19 PM MDT (4/5)
Length of Visible Light 13h 49m
Length of Day
12h 53m
Waning Crescent, 23% of the Moon is Illuminated
Apr 5
Waning Crescent
Apr 10
New
Apr 18
First Quarter
Apr 25
Full
May 2
Last Quarter

Hourly Weather History & Observations

Time (MDT) Temp. Windchill Dew Point Humidity Pressure Visibility Wind Dir Wind Speed Gust Speed Precip Events Conditions
12:53 AM 48.0 °F - 25.0 °F 41% 29.80 in 10.0 mi SSW 10.4 mph - N/A   Overcast
1:53 AM 46.9 °F - 25.0 °F 42% 29.79 in 10.0 mi SSW 13.8 mph - N/A   Mostly Cloudy
2:53 AM 46.0 °F 39.9 °F 25.0 °F 44% 29.78 in 10.0 mi SW 13.8 mph - N/A   Mostly Cloudy
3:53 AM 46.0 °F 40.6 °F 25.0 °F 44% 29.78 in 10.0 mi WSW 11.5 mph - N/A   Overcast
4:53 AM 44.1 °F 38.6 °F 27.0 °F 51% 29.78 in 10.0 mi WSW 10.4 mph - N/A   Partly Cloudy
5:53 AM 45.0 °F 38.9 °F 28.9 °F 53% 29.78 in 10.0 mi SW 12.7 mph - N/A   Overcast
6:53 AM 41.0 °F 33.9 °F 32.0 °F 70% 29.79 in 10.0 mi SSW 12.7 mph - N/A   Partly Cloudy
7:53 AM 42.1 °F 34.9 °F 33.1 °F 70% 29.82 in 10.0 mi WSW 13.8 mph - N/A   Overcast
8:14 AM 41.0 °F 33.5 °F 33.8 °F 76% 29.99 in 10.0 mi WSW 13.8 mph - 0.00 in Rain Light Rain
8:33 AM 39.2 °F 29.8 °F 35.6 °F 87% 30.01 in 3.0 mi WNW 18.4 mph 24.2 mph 0.01 in Rain Rain
8:53 AM 37.0 °F 27.0 °F 34.0 °F 89% 29.88 in 7.0 mi NW 18.4 mph 23.0 mph 0.02 in Rain Light Rain
9:06 AM 37.4 °F 28.2 °F 33.8 °F 87% 29.99 in 10.0 mi NNW 16.1 mph 25.3 mph 0.00 in   Overcast
9:50 AM 37.4 °F 31.4 °F 35.6 °F 93% 30.02 in 6.0 mi NW 8.1 mph - 0.01 in Rain Light Rain
9:53 AM 37.9 °F 32.1 °F 35.1 °F 89% 29.91 in 4.0 mi WNW 8.1 mph - 0.01 in Rain Light Rain
10:02 AM 37.4 °F 30.3 °F 33.8 °F 87% 30.03 in 2.0 mi West 10.4 mph - 0.03 in Rain Rain
10:07 AM 37.4 °F 29.8 °F 33.8 °F 87% 30.03 in 3.0 mi West 11.5 mph - 0.03 in Rain Light Rain
10:53 AM 37.0 °F 29.8 °F - N/A% 29.92 in 10.0 mi WSW 10.4 mph - 0.07 in Rain Light Rain
11:19 AM 37.4 °F 28.5 °F - N/A% 30.03 in 10.0 mi SSW 15.0 mph - 0.00 in   Overcast
11:53 AM 37.9 °F 29.2 °F - N/A% 29.92 in 10.0 mi SW 15.0 mph - 0.00 in   Overcast
12:03 PM 37.4 °F 27.8 °F - N/A% 30.03 in 10.0 mi SW 17.3 mph - N/A   Overcast
12:21 PM 37.4 °F 29.3 °F 35.6 °F 93% 30.04 in 10.0 mi SW 12.7 mph - N/A   Overcast
12:32 PM 37.4 °F 28.9 °F 35.6 °F 93% 30.04 in 10.0 mi SW 13.8 mph - N/A   Overcast
12:53 PM 39.9 °F 31.8 °F 37.9 °F 93% 29.90 in 10.0 mi SW 15.0 mph - N/A   Overcast
1:12 PM 42.8 °F 36.2 °F 39.2 °F 87% 30.02 in 10.0 mi SW 12.7 mph 19.6 mph N/A   Mostly Cloudy
1:21 PM 42.8 °F 36.6 °F 37.4 °F 81% 30.02 in 10.0 mi WSW 11.5 mph 20.7 mph N/A   Mostly Cloudy
1:31 PM 44.6 °F 38.1 °F 37.4 °F 76% 30.02 in 10.0 mi SW 13.8 mph 18.4 mph N/A   Overcast
1:53 PM 43.0 °F 35.7 °F 37.0 °F 80% 29.88 in 10.0 mi WSW 15.0 mph 20.7 mph N/A   Mostly Cloudy
2:53 PM 45.0 °F 36.9 °F 28.9 °F 53% 29.87 in 10.0 mi West 20.7 mph 31.1 mph N/A   Mostly Cloudy
3:53 PM 48.0 °F - 28.9 °F 48% 29.86 in 10.0 mi West 25.3 mph 31.1 mph N/A   Mostly Cloudy
4:53 PM 46.0 °F 39.3 °F 28.9 °F 51% 29.88 in 10.0 mi West 16.1 mph 23.0 mph N/A   Overcast
5:53 PM 48.0 °F - 28.9 °F 48% 29.88 in 10.0 mi West 17.3 mph - N/A   Scattered Clouds
6:53 PM 44.1 °F 36.5 °F 27.0 °F 51% 29.91 in 10.0 mi WSW 17.3 mph - N/A   Partly Cloudy
7:53 PM 41.0 °F 34.3 °F 26.1 °F 55% 29.93 in 10.0 mi West 11.5 mph - N/A   Clear
8:53 PM 37.9 °F 30.9 °F 25.0 °F 60% 29.97 in 10.0 mi WSW 10.4 mph - N/A   Clear
9:53 PM 36.0 °F 29.6 °F 25.0 °F 64% 30.01 in 10.0 mi WSW 8.1 mph - N/A   Clear
10:53 PM 35.1 °F 29.3 °F 25.0 °F 67% 30.02 in 10.0 mi SW 6.9 mph - N/A   Clear
11:53 PM 34.0 °F 27.2 °F 24.1 °F 67% 30.01 in 10.0 mi SW 8.1 mph - N/A   Clear